Location: Shades State Park
(39.9310°N, 87.0690°W)
Time: 11:32:44
(UTC-05:00)

ISS - Visible Passes

Search period start: 22 November 2014 00:00
Search period end: 02 December 2014 00:00
Orbit: 408 x 417 km, 51.6° (Epoch: 22 November)

Date Brightness Start Highest point End Pass type
(mag) Time Alt. Az. Time Alt. Az. Time Alt. Az.
22 Nov -0.9 06:07:16 13° N 06:07:59 14° NNE 06:09:48 10° NE visible
23 Nov -1.8 06:52:34 10° NW 06:55:31 29° NNE 06:58:28 10° E visible
24 Nov -1.4 06:04:50 19° N 06:05:38 21° NNE 06:08:13 10° ENE visible
25 Nov -0.2 05:17:11 12° NE 05:17:11 12° NE 05:17:46 10° ENE visible
25 Nov -3.1 06:50:01 14° NW 06:52:47 68° NE 06:56:04 10° ESE visible
26 Nov -2.4 06:02:22 36° N 06:02:54 39° NNE 06:06:02 10° ESE visible
27 Nov -0.3 05:14:44 16° ENE 05:14:44 16° ENE 05:15:44 10° E visible
27 Nov -2.7 06:47:34 18° WNW 06:49:39 41° SW 06:52:46 10° SSE visible
28 Nov -3.3 05:59:57 76° S 05:59:57 76° S 06:03:04 10° SE visible
29 Nov -0.2 05:12:23 15° ESE 05:12:23 15° ESE 05:13:03 10° ESE visible
29 Nov -1.3 06:45:12 14° WSW 06:46:07 15° SW 06:48:08 10° SSW visible
30 Nov -1.3 05:57:39 20° S 05:57:39 20° S 05:59:07 10° SSE visible
